HARMALA Weather Reports


Display with metric or nautical units.
time (UTC)temp
F
wind
direction
speed
MPH
gust
MPH
rain 1hr
in
rain 24hr
in
rain mn
in
humidity
%
barometer
mb
20260506172722 47 0.0 0.0 0.00 0.00 0.00 28 1013.7
20260506170723 48 0.0 0.0 0.00 0.00 0.00 28 1013.6
20260506164722 48 0.0 0.0 0.00 0.00 0.00 27 1013.4
20260506162723 48 0.0 0.0 0.00 0.00 0.00 26 1013.4
20260506160723 49 0.0 0.0 0.00 0.00 0.00 25 1013.3
20260506154723 49 0.0 0.0 0.00 0.00 0.00 23 1013.4
20260506152723 49 0.0 0.0 0.00 0.00 0.00 22 1013.3
20260506150722 49 0.0 0.0 0.00 0.00 0.00 22 1013.3
20260506144722 50 0.0 0.0 0.00 0.00 0.00 25 1013.3
20260506142722 50 0.0 0.0 0.00 0.00 0.00 25 1013.2
20260506140722 50 0.0 0.0 0.00 0.00 0.00 27 1013.1
20260506134722 50 0.0 0.0 0.00 0.00 0.00 25 1013.2
20260506132722 51 0.0 0.0 0.00 0.00 0.00 21 1013.1
20260506130721 50 0.0 0.0 0.00 0.00 0.00 25 1012.9
20260506124722 50 0.0 0.0 0.00 0.00 0.00 24 1012.9
20260506123047 50 0.0 0.0 0.00 0.00 0.00 24 1012.7
20260506120722 50 0.0 0.0 0.00 0.00 0.00 25 1012.7
20260506114722 50 0.0 0.0 0.00 0.00 0.00 23 1012.7
20260506112722 50 0.0 0.0 0.00 0.00 0.00 24 1012.5
20260506110722 49 0.0 0.0 0.00 0.00 0.00 23 1012.5
20260506104723 49 0.0 0.0 0.00 0.00 0.00 23 1012.5
20260506102723 50 0.0 0.0 0.00 0.00 0.00 27 1012.2
20260506100723 49 0.0 0.0 0.00 0.00 0.00 29 1012.2
20260506094723 49 0.0 0.0 0.00 0.00 0.00 27 1012.0
20260506092723 49 0.0 0.0 0.00 0.00 0.00 26 1011.9
20260506090723 48 0.0 0.0 0.00 0.00 0.00 29 1011.9
20260506084723 47 0.0 0.0 0.00 0.00 0.00 31 1011.9
20260506082723 47 0.0 0.0 0.00 0.00 0.00 35 1011.7
20260506080722 46 0.0 0.0 0.00 0.00 0.00 34 1011.6
20260506072723 46 0.0 0.0 0.00 0.00 0.00 40 1011.3
20260506070723 44 0.0 0.0 0.00 0.00 0.00 44 1011.2
20260506060723 42 0.0 0.0 0.00 0.00 0.00 55 1010.8
20260506050722 40 0.0 0.0 0.00 0.00 0.00 68 1010.4
20260506044722 39 0.0 0.0 0.00 0.00 0.00 70 1010.2
20260506042722 38 0.0 0.0 0.00 0.00 0.00 72 1010.1
20260506040722 37 0.0 0.0 0.00 0.00 0.00 75 1009.9
20260506034723 35 0.0 0.0 0.00 0.04 0.00 86 1009.8
20260506032722 31 0.0 0.0 0.00 0.04 0.00 94 1009.6
20260506030722 30 0.0 0.0 0.00 0.04 0.00 94 1009.4
20260506024722 30 0.0 0.0 0.00 0.05 0.00 94 1009.1
20260506022722 30 0.0 0.0 0.00 0.05 0.00 93 1008.9
20260506020722 31 0.0 0.0 0.00 0.05 0.00 91 1008.8
20260506014722 33 0.0 0.0 0.00 0.05 0.00 88 1008.6
20260506012721 33 0.0 0.0 0.00 0.05 0.00 88 1008.5
20260506010722 33 0.0 0.0 0.00 0.05 0.00 88 1008.3
20260506004721 33 0.0 0.0 0.00 0.05 0.00 86 1008.0
20260506002721 33 0.0 0.0 0.00 0.05 0.00 85 1007.9
20260506000721 32 0.0 0.0 0.00 0.05 0.00 85 1007.9
20260505234722 33 0.0 0.0 0.00 0.05 0.00 84 1007.7
20260505232722 32 0.0 0.0 0.00 0.05 0.00 84 1007.8
20260505230721 34 0.0 0.0 0.00 0.05 0.00 78 1007.7
20260505224721 35 0.0 0.0 0.00 0.05 0.00 77 1007.6
20260505222721 36 0.0 0.0 0.00 0.05 0.00 74 1007.5
20260505220721 37 0.0 0.0 0.00 0.05 0.00 71 1007.5
20260505214721 37 0.0 0.0 0.00 0.05 0.00 68 1007.4
20260505212721 38 0.0 0.0 0.00 0.05 0.00 66 1007.3
20260505210720 38 0.0 0.0 0.00 0.05 0.00 64 1007.1
20260505204721 39 0.0 0.0 0.00 0.07 0.05 61 1006.9
20260505202721 40 0.0 0.0 0.00 0.07 0.05 59 1006.7
20260505200720 40 0.0 0.0 0.00 0.07 0.05 58 1006.7
20260505194720 40 0.0 0.0 0.00 0.09 0.05 55 1006.6
20260505192721 41 0.0 0.0 0.00 0.09 0.05 53 1006.4
20260505190720 42 0.0 0.0 0.00 0.09 0.05 51 1006.2
20260505184720 42 0.0 0.0 0.00 0.09 0.05 49 1006.0
20260505182720 43 0.0 0.0 0.00 0.09 0.05 47 1005.7
20260505180720 44 0.0 0.0 0.00 0.09 0.05 46 1005.5
20260505174720 45 0.0 0.0 0.00 0.09 0.05 45 1005.3